Home   Weather   Columbus Plaza   Past weeks
Flag for USA

Past Weather in Columbus Plaza, District of Columbia, USA — Yesterday and Last 2 Weeks

Now
80 °F

Partly cloudy.


Feels Like: 83 °F
Forecast: 93 / 75 °F
Wind: No wind

Location: Reagan National Airport

Current Time: Jul 22, 2019 at 4:02:20 am

Latest Report: Jul 22, 2019 at 2:52 am


Visibility: 10 mi

Pressure: 29.88 "Hg

Humidity: 69%

Dew Point: 69 °F

Location of Columbus PlazaLocation

Past Weather in Columbus Plaza — Graph

°F

Columbus Plaza Temperature Yesterday

Maximum temperature yesterday: 98 °F (at 1:52 pm)
Minimum temperature yesterday: 81 °F (at 9:52 pm)
Average temperature yesterday: 90 °F

High & Low Weather Summary for the Past Weeks

 TemperatureHumidityPressure
High98 °F (Jul 21, 1:52 pm)97% (Jul 8, 9:28 am)30.12 "Hg (Jul 8, 9:28 am)
Low68 °F (Jul 9, 4:52 am)36% (Jul 13, 3:52 pm)29.78 "Hg (Jul 11, 5:52 pm)
Average83 °F67%29.94 "Hg
* Reported Jul 7 1:15 am — Jul 22 1:52 am, Columbus Plaza. Weather by CustomWeather, © 2019

Note: Actual official high and low records may vary slightly from our data, if they occured in-between our weather recording intervals... More about our weather records

Advertising

Columbus Plaza Weather History for the Previous 24 Hours

Scroll right to see more
 ConditionsComfort  
Time TempWeatherWind HumidityBarometerVisibility
1:52 am
Mon, Jul 22
79 °FMostly cloudy.3 mph72%29.89 "Hg10 mi
12:52 am80 °FPassing clouds.6 mph67%29.90 "Hg10 mi
11:52 pm
Sun, Jul 21
81 °FPassing clouds.6 mph65%29.90 "Hg10 mi
10:52 pm83 °FMostly cloudy.7 mph59%29.89 "Hg10 mi
9:52 pm81 °FPassing clouds.6 mph65%29.88 "Hg10 mi
8:52 pm84 °FPartly cloudy.No wind61%29.85 "Hg10 mi
7:52 pm91 °FThunderstorms. Partly sunny.15 mph49%29.88 "Hg10 mi
7:40 pm93 °FThunderstorms. Partly sunny.20 mph47%29.85 "Hg10 mi
6:52 pm96 °FLight rain. Broken clouds.12 mph46%29.84 "Hg10 mi
6:27 pm97 °FBroken clouds.12 mph45%29.83 "Hg10 mi
6:19 pm97 °FLight rain. Broken clouds.14 mph45%29.83 "Hg10 mi
5:52 pm97 °FBroken clouds.14 mph43%29.83 "Hg10 mi
4:52 pm98 °FPartly sunny.10 mph45%29.84 "Hg10 mi
3:52 pm96 °FPartly sunny.8 mph49%29.84 "Hg10 mi
2:52 pm96 °FScattered clouds.13 mph47%29.86 "Hg10 mi
1:52 pm98 °FScattered clouds.13 mph43%29.88 "Hg10 mi
12:52 pm97 °FPassing clouds.13 mph45%29.88 "Hg10 mi
11:52 am95 °FPassing clouds.9 mph49%29.90 "Hg10 mi
10:52 am94 °FPassing clouds.14 mph51%29.90 "Hg10 mi
9:52 am93 °FPassing clouds.13 mph52%29.91 "Hg10 mi
8:52 am89 °FScattered clouds.5 mph57%29.91 "Hg10 mi
7:52 am86 °FPassing clouds.5 mph63%29.91 "Hg10 mi
6:52 am82 °FPartly sunny.7 mph70%29.88 "Hg10 mi
5:52 am82 °FPassing clouds.7 mph72%29.86 "Hg10 mi
4:52 am84 °FPassing clouds.No wind70%29.85 "Hg10 mi
Weather by CustomWeather, © 2019

See weather overview